| time (UTC) | temp F | wind direction | speed MPH | gust MPH | rain 1hr in | rain 24hr in | rain mn in | humidity % | barometer mb |
| 20260505215431 | 49 | 62 | 1.0 | 3.0 | 0.00 | 0.00 | 0.00 | 76 | 975.3 |
| 20260505214931 | 49 | 23 | 2.0 | 2.0 | 0.00 | 0.00 | 0.00 | 76 | 975.3 |
| 20260505214430 | 49 | 22 | 1.0 | 2.0 | 0.00 | 0.00 | 0.00 | 76 | 975.3 |
| 20260505213930 | 49 | 244 | 1.0 | 2.0 | 0.00 | 0.00 | 0.00 | 77 | 975.4 |
| 20260505212908 | 49 | 267 | 1.0 | 2.0 | 0.00 | 0.00 | 0.00 | 76 | 975.4 |
| 20260505212407 | 49 | 0 | 0.0 | 0.0 | 0.00 | 0.00 | 0.00 | 76 | 975.4 |
| 20260505211906 | 49 | 313 | 1.0 | 3.0 | 0.00 | 0.00 | 0.00 | 76 | 975.4 |
| 20260505211406 | 49 | 336 | 4.0 | 5.0 | 0.00 | 0.00 | 0.00 | 75 | 975.4 |
| 20260505210906 | 49 | 336 | 3.0 | 4.0 | 0.00 | 0.00 | 0.00 | 75 | 975.3 |
| 20260505210405 | 49 | 324 | 2.0 | 3.0 | 0.00 | 0.00 | 0.00 | 76 | 975.3 |
| 20260505205905 | 49 | 286 | 1.0 | 2.0 | 0.00 | 0.00 | 0.00 | 76 | 975.3 |
| 20260505205404 | 49 | 337 | 4.0 | 4.0 | 0.00 | 0.00 | 0.00 | 76 | 975.4 |
| 20260505204904 | 49 | 279 | 3.0 | 4.0 | 0.00 | 0.00 | 0.00 | 75 | 975.4 |
| 20260505204403 | 49 | 328 | 3.0 | 5.0 | 0.00 | 0.00 | 0.00 | 76 | 975.4 |
| 20260505203341 | 49 | 341 | 3.0 | 5.0 | 0.00 | 0.00 | 0.00 | 76 | 975.5 |
| 20260505202841 | 49 | 313 | 5.0 | 6.0 | 0.00 | 0.00 | 0.00 | 76 | 975.5 |
| 20260505202341 | 49 | 353 | 1.0 | 2.0 | 0.00 | 0.00 | 0.00 | 77 | 975.6 |
| 20260505201840 | 49 | 330 | 3.0 | 4.0 | 0.00 | 0.00 | 0.00 | 77 | 975.6 |
| 20260505201341 | 49 | 286 | 2.0 | 3.0 | 0.00 | 0.00 | 0.00 | 77 | 975.5 |
| 20260505200840 | 49 | 306 | 3.0 | 4.0 | 0.00 | 0.00 | 0.00 | 77 | 975.4 |
| 20260505200340 | 49 | 285 | 3.0 | 5.0 | 0.00 | 0.00 | 0.00 | 76 | 975.5 |
| 20260505195318 | 49 | 285 | 3.0 | 4.0 | 0.00 | 0.00 | 0.00 | 76 | 975.4 |
| 20260505194818 | 49 | 334 | 4.0 | 5.0 | 0.00 | 0.00 | 0.00 | 77 | 975.3 |
| 20260505194318 | 49 | 285 | 3.0 | 5.0 | 0.00 | 0.00 | 0.00 | 77 | 975.2 |
| 20260505193817 | 49 | 282 | 4.0 | 6.0 | 0.00 | 0.00 | 0.00 | 76 | 975.2 |
| 20260505193316 | 49 | 301 | 3.0 | 6.0 | 0.00 | 0.00 | 0.00 | 77 | 975.1 |
| 20260505192816 | 49 | 283 | 4.0 | 5.0 | 0.00 | 0.00 | 0.00 | 77 | 975.2 |
| 20260505192315 | 48 | 291 | 4.0 | 8.0 | 0.00 | 0.00 | 0.00 | 76 | 975.1 |
| 20260505191814 | 48 | 292 | 2.0 | 4.0 | 0.00 | 0.00 | 0.00 | 78 | 975.1 |
| 20260505191313 | 48 | 299 | 3.0 | 5.0 | 0.00 | 0.00 | 0.00 | 76 | 974.9 |
| 20260505190252 | 49 | 311 | 3.0 | 5.0 | 0.00 | 0.00 | 0.00 | 77 | 974.9 |
| 20260505185752 | 49 | 280 | 4.0 | 6.0 | 0.00 | 0.00 | 0.00 | 73 | 975.0 |
| 20260505184729 | 50 | 325 | 4.0 | 7.0 | 0.00 | 0.00 | 0.00 | 72 | 974.9 |
| 20260505184229 | 50 | 292 | 2.0 | 3.0 | 0.00 | 0.00 | 0.00 | 73 | 974.8 |
| 20260505183729 | 51 | 333 | 3.0 | 5.0 | 0.00 | 0.00 | 0.00 | 70 | 974.8 |
| 20260505183228 | 51 | 288 | 4.0 | 7.0 | 0.00 | 0.00 | 0.00 | 69 | 974.9 |
| 20260505182728 | 52 | 280 | 3.0 | 5.0 | 0.00 | 0.00 | 0.00 | 67 | 974.9 |
| 20260505182227 | 52 | 322 | 5.0 | 9.0 | 0.00 | 0.00 | 0.00 | 63 | 974.6 |
| 20260505181727 | 52 | 327 | 5.0 | 8.0 | 0.00 | 0.00 | 0.00 | 59 | 974.6 |
| 20260505180705 | 53 | 296 | 6.0 | 10.0 | 0.00 | 0.00 | 0.00 | 58 | 974.5 |
| 20260505180204 | 53 | 267 | 3.0 | 5.0 | 0.00 | 0.00 | 0.00 | 61 | 974.4 |
| 20260505175704 | 53 | 304 | 4.0 | 9.0 | 0.00 | 0.00 | 0.00 | 58 | 974.1 |
| 20260505175204 | 54 | 345 | 4.0 | 7.0 | 0.00 | 0.00 | 0.00 | 60 | 974.3 |
| 20260505174704 | 54 | 319 | 5.0 | 8.0 | 0.00 | 0.00 | 0.00 | 58 | 974.4 |
| 20260505173642 | 54 | 322 | 6.0 | 8.0 | 0.00 | 0.00 | 0.00 | 55 | 974.2 |
| 20260505173141 | 54 | 277 | 4.0 | 6.0 | 0.00 | 0.00 | 0.00 | 55 | 974.2 |
| 20260505171558 | 55 | 349 | 5.0 | 7.0 | 0.00 | 0.00 | 0.00 | 56 | 973.7 |
| 20260505170537 | 55 | 358 | 6.0 | 9.0 | 0.00 | 0.00 | 0.00 | 56 | 973.5 |
| 20260505170036 | 55 | 336 | 6.0 | 9.0 | 0.00 | 0.00 | 0.00 | 58 | 973.5 |
| 20260505165535 | 55 | 283 | 2.0 | 7.0 | 0.00 | 0.00 | 0.00 | 57 | 973.5 |
| 20260505165034 | 56 | 343 | 3.0 | 5.0 | 0.00 | 0.00 | 0.00 | 57 | 973.4 |
| 20260505164533 | 56 | 33 | 4.0 | 5.0 | 0.00 | 0.00 | 0.00 | 55 | 973.5 |
| 20260505164033 | 56 | 2 | 5.0 | 8.0 | 0.00 | 0.00 | 0.00 | 55 | 973.4 |
| 20260505163012 | 55 | 334 | 2.0 | 3.0 | 0.00 | 0.00 | 0.00 | 55 | 973.3 |
| 20260505162511 | 54 | 298 | 1.0 | 3.0 | 0.00 | 0.00 | 0.00 | 56 | 973.3 |
| 20260505162011 | 55 | 341 | 3.0 | 6.0 | 0.00 | 0.00 | 0.00 | 56 | 973.5 |
| 20260505160949 | 54 | 315 | 5.0 | 8.0 | 0.00 | 0.00 | 0.00 | 57 | 973.5 |
| 20260505160449 | 54 | 334 | 5.0 | 8.0 | 0.00 | 0.00 | 0.00 | 57 | 973.4 |
| 20260505152903 | 54 | 317 | 7.0 | 12.0 | 0.00 | 0.00 | 0.00 | 61 | 973.7 |
| 20260505152403 | 55 | 353 | 7.0 | 9.0 | 0.00 | 0.00 | 0.00 | 61 | 973.5 |
| 20260505151341 | 55 | 341 | 6.0 | 10.0 | 0.00 | 0.00 | 0.00 | 61 | 973.2 |
| 20260505150841 | 55 | 335 | 8.0 | 9.0 | 0.00 | 0.00 | 0.00 | 60 | 972.8 |
| 20260505150341 | 55 | 335 | 5.0 | 9.0 | 0.00 | 0.00 | 0.00 | 63 | 972.5 |
| 20260505124646 | 50 | 334 | 4.0 | 7.0 | 0.00 | 0.00 | 0.00 | 78 | 971.4 |
| 20260505124145 | 50 | 274 | 2.0 | 4.0 | 0.00 | 0.00 | 0.00 | 78 | 971.3 |
| 20260505123645 | 50 | 292 | 2.0 | 3.0 | 0.00 | 0.00 | 0.00 | 78 | 971.1 |
| 20260505122624 | 51 | 343 | 8.0 | 11.0 | 0.00 | 0.00 | 0.00 | 78 | 970.8 |
| 20260505122123 | 53 | 342 | 7.0 | 10.0 | 0.00 | 0.00 | 0.00 | 77 | 970.6 |
| 20260505121622 | 54 | 347 | 6.0 | 9.0 | 0.00 | 0.00 | 0.00 | 76 | 970.4 |
| 20260505121122 | 55 | 315 | 5.0 | 7.0 | 0.00 | 0.00 | 0.00 | 77 | 970.4 |
| 20260505120622 | 57 | 353 | 8.0 | 12.0 | 0.00 | 0.00 | 0.00 | 75 | 970.3 |
| 20260505120122 | 58 | 293 | 6.0 | 8.0 | 0.00 | 0.00 | 0.00 | 76 | 970.1 |
| 20260505115100 | 58 | 274 | 5.0 | 9.0 | 0.00 | 0.00 | 0.00 | 76 | 969.5 |
| 20260505114559 | 58 | 266 | 7.0 | 11.0 | 0.00 | 0.00 | 0.00 | 76 | 969.4 |
| 20260505114059 | 58 | 270 | 6.0 | 8.0 | 0.00 | 0.00 | 0.00 | 75 | 969.4 |
| 20260505113038 | 58 | 271 | 7.0 | 12.0 | 0.00 | 0.00 | 0.00 | 75 | 969.2 |
| 20260505112537 | 59 | 253 | 9.0 | 15.0 | 0.00 | 0.00 | 0.00 | 75 | 969.2 |
| 20260505111514 | 59 | 275 | 7.0 | 9.0 | 0.00 | 0.00 | 0.00 | 74 | 969.1 |
| 20260505101930 | 59 | 271 | 10.0 | 16.0 | 0.00 | 0.00 | 0.00 | 72 | 968.6 |
| 20260505101430 | 59 | 263 | 7.0 | 12.0 | 0.00 | 0.00 | 0.00 | 73 | 968.5 |
| 20260505100929 | 59 | 278 | 7.0 | 11.0 | 0.00 | 0.00 | 0.00 | 73 | 968.5 |
| 20260505095346 | 59 | 266 | 5.0 | 9.0 | 0.00 | 0.00 | 0.00 | 73 | 968.5 |
| 20260505094846 | 59 | 264 | 8.0 | 12.0 | 0.00 | 0.00 | 0.00 | 73 | 968.5 |
| 20260505094346 | 59 | 249 | 7.0 | 9.0 | 0.00 | 0.00 | 0.00 | 73 | 968.4 |
| 20260505093846 | 59 | 275 | 6.0 | 11.0 | 0.00 | 0.00 | 0.00 | 73 | 968.4 |
| 20260505093345 | 59 | 255 | 7.0 | 10.0 | 0.00 | 0.00 | 0.00 | 73 | 968.2 |
| 20260505092845 | 60 | 264 | 8.0 | 12.0 | 0.00 | 0.00 | 0.00 | 73 | 968.2 |
| 20260505092344 | 60 | 274 | 8.0 | 10.0 | 0.00 | 0.00 | 0.00 | 73 | 968.0 |
| 20260505091843 | 60 | 260 | 11.0 | 17.0 | 0.00 | 0.00 | 0.00 | 72 | 968.0 |
| 20260505091343 | 60 | 274 | 8.0 | 14.0 | 0.00 | 0.00 | 0.00 | 72 | 968.0 |
| 20260505090843 | 60 | 271 | 6.0 | 9.0 | 0.00 | 0.00 | 0.00 | 72 | 967.9 |
| 20260505090342 | 60 | 266 | 9.0 | 13.0 | 0.00 | 0.00 | 0.00 | 72 | 967.9 |
| 20260505085842 | 60 | 276 | 6.0 | 7.0 | 0.00 | 0.00 | 0.00 | 72 | 967.8 |
| 20260505085341 | 60 | 265 | 6.0 | 8.0 | 0.00 | 0.00 | 0.00 | 72 | 967.8 |
| 20260505084320 | 60 | 258 | 7.0 | 12.0 | 0.00 | 0.00 | 0.00 | 72 | 967.6 |
| 20260505083820 | 60 | 237 | 3.0 | 6.0 | 0.00 | 0.00 | 0.00 | 72 | 967.6 |
| 20260505083320 | 60 | 264 | 4.0 | 6.0 | 0.00 | 0.00 | 0.00 | 72 | 967.5 |
| 20260505082819 | 60 | 246 | 5.0 | 7.0 | 0.00 | 0.00 | 0.00 | 72 | 967.5 |
| 20260505082318 | 61 | 259 | 5.0 | 7.0 | 0.00 | 0.00 | 0.00 | 71 | 967.6 |
| 20260505081257 | 61 | 267 | 3.0 | 6.0 | 0.00 | 0.00 | 0.00 | 70 | 967.4 |
| 20260505080757 | 61 | 276 | 8.0 | 13.0 | 0.00 | 0.00 | 0.00 | 70 | 967.4 |
| 20260505080256 | 61 | 266 | 6.0 | 8.0 | 0.00 | 0.00 | 0.00 | 70 | 967.4 |
| 20260505075756 | 61 | 265 | 5.0 | 8.0 | 0.00 | 0.00 | 0.00 | 71 | 967.3 |
| 20260505074735 | 61 | 258 | 5.0 | 11.0 | 0.00 | 0.00 | 0.00 | 71 | 967.3 |
| 20260505072109 | 62 | 260 | 6.0 | 9.0 | 0.00 | 0.00 | 0.00 | 69 | 967.4 |
| 20260505071609 | 62 | 271 | 7.0 | 11.0 | 0.00 | 0.00 | 0.00 | 68 | 967.4 |
| 20260505071108 | 62 | 263 | 4.0 | 7.0 | 0.00 | 0.00 | 0.00 | 68 | 967.5 |
| 20260505070608 | 62 | 273 | 7.0 | 13.0 | 0.00 | 0.00 | 0.00 | 68 | 967.5 |
| 20260505070108 | 61 | 261 | 6.0 | 9.0 | 0.00 | 0.00 | 0.00 | 69 | 967.4 |
| 20260505065047 | 60 | 252 | 4.0 | 8.0 | 0.00 | 0.00 | 0.00 | 71 | 967.6 |
| 20260505064546 | 60 | 255 | 4.0 | 7.0 | 0.00 | 0.00 | 0.00 | 71 | 967.7 |
| 20260505064046 | 59 | 267 | 2.0 | 4.0 | 0.00 | 0.00 | 0.00 | 72 | 967.8 |
| 20260505063025 | 59 | 245 | 5.0 | 9.0 | 0.00 | 0.00 | 0.00 | 72 | 968.0 |
| 20260505062524 | 59 | 242 | 5.0 | 9.0 | 0.00 | 0.00 | 0.00 | 71 | 968.1 |
| 20260505062023 | 59 | 238 | 4.0 | 8.0 | 0.00 | 0.00 | 0.00 | 72 | 968.1 |
| 20260505061002 | 59 | 242 | 5.0 | 8.0 | 0.00 | 0.00 | 0.00 | 72 | 968.2 |
| 20260505055419 | 59 | 261 | 5.0 | 7.0 | 0.00 | 0.00 | 0.00 | 71 | 968.4 |
| 20260505054918 | 59 | 259 | 2.0 | 6.0 | 0.00 | 0.00 | 0.00 | 71 | 968.4 |
| 20260505054418 | 59 | 256 | 7.0 | 12.0 | 0.00 | 0.00 | 0.00 | 71 | 968.5 |
| 20260505053918 | 60 | 257 | 5.0 | 11.0 | 0.00 | 0.00 | 0.00 | 71 | 968.5 |
| 20260505053418 | 60 | 254 | 7.0 | 11.0 | 0.00 | 0.00 | 0.00 | 71 | 968.6 |
| 20260505052917 | 60 | 268 | 6.0 | 13.0 | 0.00 | 0.00 | 0.00 | 71 | 968.6 |
| 20260505052417 | 60 | 220 | 3.0 | 4.0 | 0.00 | 0.00 | 0.00 | 71 | 968.5 |
| 20260505051917 | 60 | 248 | 8.0 | 13.0 | 0.00 | 0.00 | 0.00 | 70 | 968.5 |
| 20260505051416 | 60 | 242 | 5.0 | 7.0 | 0.00 | 0.00 | 0.00 | 70 | 968.6 |
| 20260505050354 | 60 | 224 | 4.0 | 7.0 | 0.00 | 0.00 | 0.00 | 71 | 968.6 |
| 20260505040749 | 62 | 264 | 8.0 | 14.0 | 0.00 | 0.00 | 0.00 | 68 | 968.5 |
| 20260505040246 | 62 | 251 | 7.0 | 11.0 | 0.00 | 0.00 | 0.00 | 68 | 968.5 |
| 20260505035746 | 61 | 267 | 6.0 | 8.0 | 0.00 | 0.00 | 0.00 | 69 | 968.5 |
| 20260505035246 | 61 | 256 | 5.0 | 8.0 | 0.00 | 0.00 | 0.00 | 70 | 968.6 |
| 20260505034746 | 61 | 250 | 4.0 | 6.0 | 0.00 | 0.00 | 0.00 | 70 | 968.6 |
| 20260505034246 | 61 | 241 | 4.0 | 7.0 | 0.00 | 0.00 | 0.00 | 70 | 968.6 |
| 20260505033745 | 61 | 256 | 7.0 | 11.0 | 0.00 | 0.00 | 0.00 | 69 | 968.6 |
| 20260505033245 | 61 | 258 | 7.0 | 13.0 | 0.00 | 0.00 | 0.00 | 69 | 968.7 |
| 20260505032744 | 62 | 261 | 6.0 | 10.0 | 0.00 | 0.00 | 0.00 | 69 | 968.8 |
| 20260505032244 | 62 | 260 | 6.0 | 12.0 | 0.00 | 0.00 | 0.00 | 68 | 968.8 |
| 20260505031744 | 62 | 253 | 6.0 | 10.0 | 0.00 | 0.00 | 0.00 | 67 | 969.0 |
| 20260505030722 | 63 | 251 | 8.0 | 12.0 | 0.00 | 0.00 | 0.00 | 65 | 969.1 |
| 20260505030222 | 62 | 254 | 7.0 | 11.0 | 0.00 | 0.00 | 0.00 | 66 | 969.2 |
| 20260505025722 | 62 | 266 | 7.0 | 12.0 | 0.00 | 0.00 | 0.00 | 68 | 969.2 |
| 20260505024700 | 61 | 265 | 9.0 | 12.0 | 0.00 | 0.00 | 0.00 | 71 | 969.0 |
| 20260505024159 | 60 | 262 | 5.0 | 10.0 | 0.00 | 0.00 | 0.00 | 73 | 969.1 |
| 20260505023658 | 60 | 267 | 9.0 | 14.0 | 0.00 | 0.00 | 0.00 | 75 | 969.2 |
| 20260505022636 | 61 | 259 | 3.0 | 6.0 | 0.00 | 0.00 | 0.00 | 77 | 969.6 |
| 20260505022136 | 61 | 282 | 7.0 | 10.0 | 0.00 | 0.00 | 0.00 | 73 | 969.6 |
| 20260505021113 | 62 | 262 | 10.0 | 13.0 | 0.00 | 0.00 | 0.00 | 69 | 969.3 |
| 20260505020613 | 62 | 257 | 7.0 | 12.0 | 0.00 | 0.00 | 0.00 | 69 | 969.2 |
| 20260505015552 | 62 | 265 | 8.0 | 13.0 | 0.00 | 0.00 | 0.00 | 65 | 969.0 |
| 20260505015050 | 62 | 265 | 10.0 | 13.0 | 0.00 | 0.00 | 0.00 | 66 | 968.9 |
| 20260505014550 | 62 | 253 | 3.0 | 6.0 | 0.00 | 0.00 | 0.00 | 66 | 968.8 |
| 20260505014050 | 61 | 256 | 5.0 | 12.0 | 0.00 | 0.00 | 0.00 | 67 | 968.5 |
| 20260505013550 | 61 | 227 | 4.0 | 8.0 | 0.00 | 0.00 | 0.00 | 67 | 968.2 |
| 20260505013049 | 61 | 238 | 4.0 | 9.0 | 0.00 | 0.00 | 0.00 | 67 | 968.3 |
| 20260505012549 | 61 | 236 | 3.0 | 6.0 | 0.00 | 0.00 | 0.00 | 67 | 968.2 |
| 20260505012048 | 61 | 209 | 3.0 | 7.0 | 0.00 | 0.00 | 0.00 | 67 | 968.2 |
| 20260505011548 | 62 | 205 | 4.0 | 7.0 | 0.00 | 0.00 | 0.00 | 66 | 968.2 |
| 20260505011047 | 62 | 199 | 3.0 | 7.0 | 0.00 | 0.00 | 0.00 | 66 | 968.2 |
| 20260505010547 | 62 | 222 | 4.0 | 9.0 | 0.00 | 0.00 | 0.00 | 65 | 968.1 |
| 20260505010047 | 63 | 226 | 3.0 | 6.0 | 0.00 | 0.00 | 0.00 | 64 | 968.1 |
| 20260505005547 | 63 | 225 | 4.0 | 6.0 | 0.00 | 0.00 | 0.00 | 63 | 968.1 |
| 20260505005046 | 63 | 263 | 3.0 | 8.0 | 0.00 | 0.00 | 0.00 | 61 | 968.1 |
| 20260505004546 | 64 | 217 | 3.0 | 6.0 | 0.00 | 0.00 | 0.00 | 60 | 968.0 |
| 20260505004046 | 64 | 253 | 2.0 | 4.0 | 0.00 | 0.00 | 0.00 | 59 | 968.0 |
| 20260505003545 | 65 | 228 | 2.0 | 4.0 | 0.00 | 0.00 | 0.00 | 57 | 968.1 |
| 20260505003045 | 65 | 235 | 4.0 | 7.0 | 0.00 | 0.00 | 0.00 | 56 | 968.1 |
| 20260505002544 | 66 | 212 | 2.0 | 4.0 | 0.00 | 0.00 | 0.00 | 55 | 968.1 |
| 20260505002044 | 66 | 229 | 2.0 | 4.0 | 0.00 | 0.00 | 0.00 | 54 | 968.1 |
| 20260505001543 | 66 | 247 | 4.0 | 8.0 | 0.00 | 0.00 | 0.00 | 54 | 968.0 |
| 20260505001043 | 67 | 233 | 3.0 | 5.0 | 0.00 | 0.00 | 0.00 | 53 | 968.1 |
| 20260505000542 | 67 | 260 | 7.0 | 11.0 | 0.00 | 0.00 | 0.00 | 52 | 968.1 |
| 20260505000042 | 67 | 206 | 2.0 | 4.0 | 0.00 | 0.00 | 0.00 | 52 | 968.2 |
| 20260504235541 | 68 | 223 | 4.0 | 7.0 | 0.00 | 0.00 | 0.00 | 51 | 968.1 |
| 20260504235041 | 68 | 247 | 3.0 | 6.0 | 0.00 | 0.00 | 0.00 | 50 | 968.1 |
| 20260504234020 | 68 | 265 | 6.0 | 10.0 | 0.00 | 0.00 | 0.00 | 49 | 968.1 |
| 20260504233519 | 69 | 236 | 5.0 | 8.0 | 0.00 | 0.00 | 0.00 | 47 | 968.1 |
| 20260504233019 | 69 | 257 | 5.0 | 9.0 | 0.00 | 0.00 | 0.00 | 47 | 968.2 |
| 20260504231958 | 69 | 247 | 7.0 | 11.0 | 0.00 | 0.00 | 0.00 | 46 | 968.2 |
| 20260504231457 | 69 | 249 | 10.0 | 14.0 | 0.00 | 0.00 | 0.00 | 46 | 968.3 |
| 20260504230956 | 69 | 229 | 3.0 | 8.0 | 0.00 | 0.00 | 0.00 | 46 | 968.4 |
| 20260504230456 | 69 | 258 | 10.0 | 15.0 | 0.00 | 0.00 | 0.00 | 45 | 968.4 |
| 20260504225956 | 69 | 246 | 4.0 | 7.0 | 0.00 | 0.00 | 0.00 | 45 | 968.6 |
| 20260504225456 | 69 | 268 | 5.0 | 10.0 | 0.00 | 0.00 | 0.00 | 45 | 968.6 |
| 20260504224956 | 69 | 249 | 7.0 | 14.0 | 0.00 | 0.00 | 0.00 | 44 | 968.7 |
| 20260504224455 | 69 | 257 | 8.0 | 15.0 | 0.00 | 0.00 | 0.00 | 44 | 968.7 |
| 20260504223955 | 69 | 265 | 5.0 | 9.0 | 0.00 | 0.00 | 0.00 | 43 | 968.7 |
| 20260504222933 | 69 | 259 | 8.0 | 19.0 | 0.00 | 0.00 | 0.00 | 42 | 968.9 |
| 20260504222433 | 69 | 257 | 7.0 | 12.0 | 0.00 | 0.00 | 0.00 | 41 | 968.9 |
| 20260504221933 | 69 | 244 | 3.0 | 8.0 | 0.00 | 0.00 | 0.00 | 41 | 969.0 |
| 20260504221432 | 69 | 225 | 5.0 | 13.0 | 0.00 | 0.00 | 0.00 | 39 | 969.0 |
| 20260504220932 | 69 | 250 | 7.0 | 13.0 | 0.00 | 0.00 | 0.00 | 38 | 969.1 |
| 20260504215909 | 69 | 249 | 6.0 | 13.0 | 0.00 | 0.00 | 0.00 | 37 | 969.1 |